Location: Baia de Cri?
(46.1667°N, 22.7167°E)
Time: 21:20:02
(UTC+00:00)

Cosmos 2154 Rocket - Pass Details

Date: 15 January 2026
Orbit: 965 x 997 km, 82.9° (Epoch: 10 February)

Event Time Altitude Azimuth Distance (km) Brightness Sun altitude
Rises 04:34:22 0° 197° (SSW) 3,695 7.0 -15.8°
Reaches altitude 10° 04:36:55 10° 200° (SSW) 2,747 6.3 -15.3°
Maximum altitude 04:43:10 63° 282° (WNW) 1,096 4.0 -14.3°
Drops below altitude 10° 04:49:24 10° 3° (N) 2,744 6.2 -13.2°
Sets 04:51:58 0° 7° (N) 3,691 6.9 -12.8°
